Tracking 30995 objects as of 5-Jul-2025
HD Live streaming from Space Station
objects crossing your sky now

STARLINK-30903

Track STARLINK-30903 now!
10-day predictions
STARLINK-30903 is classified as:


NORAD ID: 58355
Int'l Code: 2023-177E
Perigee: 565.0 km
Apogee: 567.5 km
Inclination: 43.0 °
Period: 95.8 minutes
Semi major axis: 6937 km
RCS: Unknown
Launch date: November 18, 2023
Source: United States (US)
Launch site: AIR FORCE EASTERN TEST RANGE (AFETR)
Your satellite tracking list
STARLINK-5392
Track 1 satellite(s)




NASA's NSSDC Master Catalog

Two Line Element Set (TLE):
1 58355U 23177E   25186.54353303 -.00000887  00000-0 -50602-4 0  9996
2 58355  43.0036 254.9406 0001821 273.3732  86.6902 15.02532422 91033
Source of the keplerian elements: AFSPC